Home > Weather > Atlantic City > Past weeks

Flag for USA Past Weather in Atlantic City, New Jersey, USA — Yesterday and Last 2 Weeks

Now
68 °F

Clear.


Feels Like: 68 °F
Forecast: 62 / 72 °F
Wind: 6 mph from Southwest

Location: Atlantic City International Airport

Current Time: May 29, 2016 at 1:49:12 AM

Latest Report: May 29, 2016 at 12:54 AM


Visibility: 10 mi

Pressure: 30.16 "Hg

Humidity: 78%

Dew Point: 61 °F

Location of Atlantic CityLocation

Past Weather in Atlantic City — Graph

°F

Atlantic City Temperature Yesterday

Maximum temperature yesterday: 85 °F (at 11:54 AM)
Minimum temperature yesterday: 67 °F (at 4:54 AM)
Average temperature yesterday: 75 °F

High & Low Weather Summary for the Past Weeks

 TemperatureHumidityPressure
High92 °F (May 26, 12:54 PM)100% (May 14, 2:54 AM)30.26 "Hg (May 14, 2:54 AM)
Low41 °F (May 16, 4:54 AM)17% (May 25, 2:54 PM)29.66 "Hg (May 14, 5:54 PM)
Average63 °F66%30.03 "Hg
* Reported May 13 11:54 PM — May 28 11:54 PM, Atlantic City, Weather by CustomWeather, © 2016

Note: Actual official high and low records may vary slightly from our data, if they occured in-between our weather recording intervals... More about our weather records

Advertising

Atlantic City Weather History for the Previous 24 Hours

Scroll right to see more
 ConditionsComfort  
Time TempWeatherWind HumidityBarometerVisibility
11:54 PM
Sat, May 28
69 °FClear.8 mph73%30.16 "Hg10 mi
10:54 PM70 °FClear.10 mph61%30.16 "Hg10 mi
9:54 PM72 °FClear.9 mph52%30.17 "Hg10 mi
8:54 PM73 °FSunny.10 mph48%30.15 "Hg10 mi
7:54 PM75 °FSunny.8 mph37%30.14 "Hg10 mi
6:54 PM79 °FSunny.10 mph27%30.13 "Hg10 mi
5:54 PM80 °FSunny.14 mph41%30.12 "Hg10 mi
4:54 PM81 °FSunny.13 mph47%30.13 "Hg10 mi
3:54 PM82 °FSunny.13 mph48%30.14 "Hg10 mi
2:54 PM82 °FSunny.12 mph55%30.14 "Hg10 mi
1:54 PM84 °FSunny.13 mph53%30.15 "Hg10 mi
12:54 PM84 °FSunny.10 mph55%30.16 "Hg10 mi
11:54 AM85 °FSunny.9 mph51%30.16 "Hg10 mi
10:54 AM82 °FSunny.5 mph56%30.17 "Hg10 mi
9:54 AM79 °FSunny.9 mph58%30.16 "Hg10 mi
8:54 AM76 °FSunny.7 mph64%30.16 "Hg10 mi
7:54 AM71 °FSunny.8 mph76%30.15 "Hg10 mi
6:54 AM67 °FSunny.5 mph81%30.16 "Hg10 mi
5:54 AM67 °FPassing clouds.3 mph79%30.15 "Hg10 mi
4:54 AM67 °FPassing clouds.5 mph79%30.13 "Hg10 mi
3:54 AM68 °FClear.5 mph76%30.12 "Hg10 mi
2:54 AM69 °FClear.6 mph70%30.11 "Hg10 mi
1:54 AM69 °FClear.8 mph70%30.11 "Hg10 mi
Weather by CustomWeather, © 2016

See weather overviewHow to use our weather pages